This is the latest recevied weather packets stored in our database for station/object DL9BGG-13. If no packets are shown the sender has not sent any weather packets the latest 1 day(s).
| Time | Temp. | Humidity | Pressure | Rain* | Wind** | Luminosity | Snow |
|---|---|---|---|---|---|---|---|
| 1778020468 | 10° C | 83% | 1055.7 hPa | 0 mm | 2.68 m/s, 67° | - | - |
| 1778020394 | 10° C | 83% | 1055.8 hPa | 0 mm | 0.89 m/s, 22° | - | - |
| 1778020320 | 10° C | 83% | 1055.7 hPa | 0 mm | 4.02 m/s, 22° | - | - |
| 1778020238 | 10° C | 84% | 1055.8 hPa | 0 mm | 2.24 m/s, 45° | - | - |
| 1778020163 | 10° C | 84% | 1055.8 hPa | 0 mm | 1.79 m/s, 45° | - | - |
| 1778020081 | 10° C | 84% | 1055.7 hPa | 0 mm | 3.13 m/s, 67° | - | - |
| 1778020017 | 10° C | 84% | 1055.8 hPa | 0 mm | 2.68 m/s, 0° | - | - |
| 1778019948 | 10° C | 84% | 1055.7 hPa | 0 mm | 2.68 m/s, 45° | - | - |
| 1778019874 | 10° C | 84% | 1055.7 hPa | 0 mm | 1.79 m/s, 45° | - | - |
| 1778019808 | 10° C | 84% | 1055.7 hPa | 0 mm | 2.24 m/s, 45° | - | - |
| 1778019743 | 10° C | 84% | 1055.7 hPa | 0 mm | 1.34 m/s, 45° | - | - |
| 1778019676 | 10° C | 84% | 1055.7 hPa | 0 mm | 2.68 m/s, 22° | - | - |
| 1778019611 | 10° C | 84% | 1055.7 hPa | 0 mm | 2.68 m/s, 0° | - | - |
| 1778019544 | 10° C | 84% | 1055.8 hPa | 0 mm | 2.24 m/s, 22° | - | - |
| 1778019479 | 10° C | 84% | 1055.7 hPa | 0 mm | 2.24 m/s, 90° | - | - |
| 1778019414 | 10° C | 84% | 1055.8 hPa | 0 mm | 4.02 m/s, 90° | - | - |
| 1778019348 | 10° C | 84% | 1055.8 hPa | 0 mm | 0.89 m/s, 45° | - | - |
| 1778019275 | 10° C | 84% | 1055.7 hPa | 0 mm | 1.79 m/s, 45° | - | - |
| 1778019203 | 10° C | 84% | 1055.7 hPa | 0 mm | 4.02 m/s, 45° | - | - |
| 1778019139 | 10° C | 85% | 1055.7 hPa | 0 mm | 2.68 m/s, 45° | - | - |
| 1778019064 | 10° C | 85% | 1055.7 hPa | 0 mm | 5.81 m/s, 45° | - | - |
| 1778018991 | 10° C | 85% | 1055.7 hPa | 0 mm | 8.05 m/s, 45° | - | - |
| 1778018917 | 10° C | 85% | 1055.7 hPa | 0 mm | 2.68 m/s, 112° | - | - |
| 1778018836 | 10° C | 85% | 1055.7 hPa | 0 mm | 2.68 m/s, 22° | - | - |
| 1778018765 | 10° C | 85% | 1055.7 hPa | 0 mm | 2.68 m/s, 337° | - | - |
* Rain latest hour (hover to see other rain measurements)
** Current wind speed in m/s (hover to see current wind gust speed)